Tracking 30102 objects as of 12-Dec-2024
HD Live streaming from Space Station
objects crossing your sky now

STARLINK-31365

Track STARLINK-31365 now!
10-day predictions
STARLINK-31365 is classified as:


NORAD ID: 58973
Int'l Code: 2024-031J
Perigee: 481.7 km
Apogee: 483.1 km
Inclination: 53.2 °
Period: 94.1 minutes
Semi major axis: 6853 km
RCS: Unknown
Launch date: February 15, 2023
Source: United States (US)
Launch site: AIR FORCE WESTERN TEST RANGE (AFWTR)
Your satellite tracking list
Your tracking list is empty




NASA's NSSDC Master Catalog

Two Line Element Set (TLE):
1 58973U 24031J   24347.12639073  .00002986  00000-0  11294-3 0  9998
2 58973  53.1589 238.8101 0000977  74.1469 285.9639 15.30189253 47248
Source of the keplerian elements: AFSPC